TimeEDT,TemperatureF,Dew PointF,Humidity,Sea Level PressureIn,VisibilityMPH,Wind Direction,Wind SpeedMPH,Gust SpeedMPH,PrecipitationIn,Events,Conditions,WindDirDegrees,DateUTC
12:53 AM,70.0,68.0,93,30.13,10.0,Calm,Calm,-,N/A,,Mostly Cloudy,0,2012-08-05 04:53:00
1:53 AM,69.1,66.9,93,30.12,10.0,Calm,Calm,-,N/A,,Scattered Clouds,0,2012-08-05 05:53:00
2:53 AM,69.1,66.9,93,30.11,10.0,Calm,Calm,-,N/A,,Mostly Cloudy,0,2012-08-05 06:53:00
3:53 AM,69.1,66.0,90,30.11,10.0,Calm,Calm,-,N/A,,Scattered Clouds,0,2012-08-05 07:53:00
4:53 AM,68.0,66.0,93,30.12,8.0,Calm,Calm,-,N/A,,Scattered Clouds,0,2012-08-05 08:53:00
5:53 AM,69.1,66.0,90,30.12,9.0,Calm,Calm,-,N/A,,Mostly Cloudy,0,2012-08-05 09:53:00
6:53 AM,68.0,66.0,93,30.12,6.0,Calm,Calm,-,N/A,,Mostly Cloudy,0,2012-08-05 10:53:00
7:53 AM,71.1,68.0,90,30.15,8.0,Calm,Calm,-,N/A,,Mostly Cloudy,0,2012-08-05 11:53:00
8:53 AM,73.0,69.1,87,30.16,10.0,Calm,Calm,-,N/A,,Mostly Cloudy,0,2012-08-05 12:53:00
9:53 AM,79.0,68.0,69,30.16,10.0,Calm,Calm,-,N/A,,Mostly Cloudy,0,2012-08-05 13:53:00
10:53 AM,80.1,69.1,69,30.17,10.0,West,3.5,-,N/A,,Mostly Cloudy,270,2012-08-05 14:53:00
11:53 AM,82.9,70.0,65,30.16,10.0,Calm,Calm,-,N/A,,Mostly Cloudy,0,2012-08-05 15:53:00
12:53 PM,84.9,68.0,57,30.14,10.0,South,5.8,-,N/A,,Mostly Cloudy,170,2012-08-05 16:53:00
1:53 PM,87.1,69.1,55,30.10,10.0,SSW,8.1,-,N/A,,Scattered Clouds,210,2012-08-05 17:53:00
2:53 PM,88.0,69.1,53,30.08,10.0,Calm,Calm,-,N/A,,Mostly Cloudy,0,2012-08-05 18:53:00
3:53 PM,88.0,69.1,53,30.06,10.0,West,8.1,-,N/A,,Mostly Cloudy,270,2012-08-05 19:53:00
4:53 PM,88.0,72.0,59,30.06,10.0,NW,8.1,-,N/A,,Mostly Cloudy,320,2012-08-05 20:53:00
5:53 PM,77.0,66.0,69,30.07,10.0,NNW,17.3,25.3,0.00,Rain-Thunderstorm,Light Thunderstorms and Rain,340,2012-08-05 21:53:00
6:53 PM,75.0,68.0,79,30.13,10.0,SSW,8.1,-,0.00,Thunderstorm,Thunderstorm,210,2012-08-05 22:53:00
7:10 PM,73.4,68.0,83,30.20,10.0,South,4.6,-,N/A,,Mostly Cloudy,190,2012-08-05 23:10:00
7:53 PM,72.0,69.1,91,30.12,10.0,East,3.5,-,0.00,,Mostly Cloudy,100,2012-08-05 23:53:00
8:11 PM,73.4,69.8,88,30.20,10.0,South,3.5,-,N/A,,Mostly Cloudy,190,2012-08-06 00:11:00
8:33 PM,71.6,69.8,94,30.19,10.0,SE,4.6,-,0.00,Rain,Light Rain,130,2012-08-06 00:33:00
8:51 PM,71.6,68.0,88,30.19,10.0,ESE,3.5,-,0.00,,Mostly Cloudy,120,2012-08-06 00:51:00
8:53 PM,71.1,68.0,90,30.12,10.0,ESE,4.6,-,0.00,,Mostly Cloudy,120,2012-08-06 00:53:00
9:53 PM,71.1,69.1,93,30.12,10.0,Calm,Calm,-,0.00,,Light Drizzle,0,2012-08-06 01:53:00
10:53 PM,70.0,68.0,93,30.12,10.0,East,3.5,-,0.00,,Overcast,100,2012-08-06 02:53:00
11:53 PM,70.0,68.0,93,30.11,10.0,Calm,Calm,-,N/A,,Overcast,0,2012-08-06 03:53:00